INMARSAT 4-F1

Last updated on Sat Jul 05 2025 00:02:44 GMT+0000 (Coordinated Universal Time)

1 28628U 05009A 25185.53323829 .00000043 00000+0 00000+0 0 9991 2 28628 4.7148 42.3201 0002116 67.7826 182.7360 1.00271712 74188
UTC large
Height (km)
Speed (km/s)
/
Latitude / Longitude
Inclination (degrees)
Orbital Period (minutes)
Azimuth
Elevation
Range (km)
Doppler Factor

Next 0 passes for location: London (51.5072 / 0.1276)

Sorry there are no passes over London.